Regional Weather Roundup
Issued by NWS

Home | Current Version | Previous Version | Graphics & Text | Print | Product List | Glossary On
Versions: 1 2 3 4 5 6 7 8 9 10 11 12 13 14 15 16 17 18 19 20 21 22 23 24 25 26 27 28
000
ASUS45 KCYS 241910
RWRWY

WYOMING REGIONAL WEATHER ROUNDUP
NATIONAL WEATHER SERVICE CHEYENNE WY
1200 PM MST FRI FEB 24 2017

NOTE:  "FAIR" INDICATES FEW OR NO CLOUDS BELOW 12,000 FEET
WITH NO SIGNIFICANT WEATHER AND/OR OBSTRUCTIONS TO VISIBILITY.

WYZ001-242000-
YELLOWSTONE NATIONAL PARK

CITY           SKY/WX    TMP DP  RH WIND       PRES   REMARKS
LK YELLOWSTONE   N/A     11   7  84 VRB5      29.85S WCI   3
W YELLOWSTONE  NOT AVBL

$$
WYZ002>013-054>058-071-098>099-242000-
NORTHERN WYOMING

CITY           SKY/WX    TMP DP  RH WIND       PRES   REMARKS
JACKSON        PTSUNNY  N/A N/A N/A MISG      29.91R
CODY           CLOUDY    26  18  71 NE3       29.94S
GREYBULL       LGT SNOW  26  22  84 SE3       29.98S FOG
WORLAND        PTSUNNY   28  22  78 NW6       29.97S WCI  22
SHERIDAN       CLOUDY    27  19  72 SE21      29.97S WCI  13
BUFFALO        PTSUNNY   24  18  77 SE10      29.93F WCI  14
GILLETTE       CLOUDY    25  19  78 S8        29.97S WCI  16
HULETT         CLOUDY    27  19  74 MISG      29.99S
NEWCASTLE      CLOUDY    23  18  80 SW7       30.03R HAZE    WCI  15

$$
WYZ014>020-022>026-101>103-242000-
CENTRAL WYOMING

CITY           SKY/WX    TMP DP  RH WIND       PRES   REMARKS
BIG PINEY      CLOUDY    17  10  74 CALM      29.90R
PINEDALE       FAIR      19   9  63 W3        29.89S
DUBOIS         MOCLDY    19   9  63 CALM      29.84S
LANDER         PTSUNNY   19  15  84 CALM      29.92S
RIVERTON       PTSUNNY   20  15  81 E3        29.94S
CASPER         LGT SNOW  20  14  77 VRB3      29.94S
DOUGLAS        PTSUNNY   20  15  81 SE9       29.98S WCI   9

$$
WYZ021-027>030-104>119-242000-
SOUTHERN WYOMING

CITY           SKY/WX    TMP DP  RH WIND       PRES   REMARKS
EVANSTON       PTSUNNY   18   8  65 W18       29.93R WCI   2
FORT BRIDGER   MOCLDY    20  16  84 W13       29.96R WCI   8
ROCK SPRINGS   LGT SNOW  18  11  74 W17       29.91S WCI   3
DIXON            N/A     21  10  61 SW7       29.94S WCI  12
RAWLINS        CLOUDY    18   9  68 N6        29.88R HAZE    WCI  10
SARATOGA       CLOUDY    19  10  68 W16       29.87R HAZE    WCI   5
LARAMIE        CLOUDY    15   7  70 SE16      29.81S WCI  -1
CHEYENNE       CLOUDY    17   9  70 E7        29.91S WCI   8
TORRINGTON     LGT SNOW  23  15  71 CALM      30.02S
PINE BLUFFS    LGT SNOW  21  18  86 N7        29.98R WCI  13

$$




USA.gov is the U.S. government's official web portal to all federal, state and local government web resources and services.